Weather Roundup
Issued by NWS Corpus Christi, TX

Home | Current Version | Previous Version | Text Only | Print | Product List | Glossary On
Versions: 1 2 3 4 5 6 7 8 9 10 11 12 13 14 15 16 17 18 19 20 21 22 23 24 25 26 27 28 29 30 31 32 33 34 35 36 37 38 39 40 41 42 43 44 45 46 47 48 49 50
000
ASUS44 KCRP 311810
HRRCRP

SOUTH TEXAS REGIONAL WEATHER ROUNDUP
NATIONAL WEATHER SERVICE CORPUS CHRISTI TX
1200 PM CST SAT JAN 31 2015


TXZ229>244-311900-
...CORPUS CHRISTI AREA OBSERVATIONS...

CITY           SKY/WX    TMP DP  RH WIND       PRES   REMARKS
CORPUS CHRISTI CLOUDY    72  64  76 SE21G29   30.06F
NAS CORPUS CHR PTSUNNY   69  64  84 SE13      30.07F
ROCKPORT       CLOUDY    69  61  75 SE13      30.08F
KINGSVILLE NAS CLOUDY    74  64  71 SE24G31   30.06F
ALICE          CLOUDY    74  60  61 SE21G28   30.04F
FALFURRIAS     CLOUDY    75  59  58 S17G24    30.04F
$$

...VICTORIA AREA OBSERVATIONS...

CITY           SKY/WX    TMP DP  RH WIND       PRES   REMARKS
VICTORIA       CLOUDY    67  60  78 SE14      30.10F
BEEVILLE       CLOUDY    68  65  88 SE15      30.07F
PLEASANTON     LGT RAIN  58  56  94 E7        30.06F
SAN ANTONIO    DRZL/FOG  54  53  97 E8        30.08F VSB 1
$$

...LAREDO AREA OBSERVATIONS...

CITY           SKY/WX    TMP DP  RH WIND       PRES   REMARKS
LAREDO         CLOUDY    69  59  70 SE21      30.02F
DEL RIO        CLOUDY    51  50  96 SE6       30.02F FOG
MCALLEN        CLOUDY    71  64  78 S16G24    30.05F
HEBBRONVILLE   CLOUDY    67  60  78 SE15      30.03F
$$

...OTHER TEXAS OBSERVATIONS...

CITY           SKY/WX    TMP DP  RH WIND       PRES   REMARKS
BROWNSVILLE    PTSUNNY   73  62  68 SE18G26   30.06F
HOUSTON        PTSUNNY   61  48  63 SE16      30.16F
COL. STATION   PTSUNNY   59  45  59 SE12      30.14F
AUSTIN         LGT RAIN  53  49  86 SE5       30.11F FOG
WACO           LGT RAIN  49  40  71 SE9       30.13F
FORT WORTH     CLOUDY    51  34  52 SE12      30.13F
WICHITA FALLS  RAIN      43  40  89 E15       30.07F FOG
LUBBOCK        LGT RAIN  39  38  96 SE10      29.97F FOG     WCI  32
EL PASO        CLOUDY    48  44  86 N5        29.92S
$$

...MARINE OBSERVATIONS...

STATION/POSITION TIME  SKY/WX   TEMP    WIND        PRES    VSBY  WAVE   SWELL
                                AIR SEA DIR/SP/G                  HT/PER HT/PER
                 (UTC)          (F)     (DEG/KT/KT) (MB)    (MI)  (FT/S) (FT/S)
PORT ARANSAS     1800            63 61  110/  9/ 10 1018.9F
BUOY 90 E PORT A 1800            68 68  120/ 16/ 19 1020.0F         5/ 6
BUOY 45 SE BAFFI 1800            69 69  150/ 14/ 17 1018.4F         5/ 6   2/11
BUOY 200 E PT IS 1800            69 72  110/ 16/ 19 1019.6F         4/ 5
BUOY 15 E GALVES 1800            59 58   90/ 14/ 16 1021.2F         3/ 6
$$


USA.gov is the U.S. government's official web portal to all federal, state and local government web resources and services.